Location: Bothwell
(41.7170°N, 112.2589°W)
Time: 01:44:46
(UTC+00:00)

STARLINK-37230 - Pass Details

Date: 19 April 2026
Orbit: 266 x 267 km, 97.3° (Epoch: 18 April)

Event Time Altitude Azimuth Distance (km) Brightness Sun altitude
Rises 04:07:43 0° 11° (N) 1,911 5.7 -19.9°
Reaches altitude 10° 04:09:33 10° 10° (N) 1,094 4.5 -20.2°
Enters shadow 04:09:46 12° 10° (N) 999 4.3 -20.2°
